Regional Weather Roundup
Issued by NWS

Home | Current Version | Previous Version | Text Only | Print | Product List | Glossary On
Versions: 1 2 3 4 5 6 7 8 9 10 11 12 13 14 15 16 17 18 19 20 21 22 23 24 25 26 27 28 29 30 31 32 33 34 35 36 37 38 39 40 41 42 43 44 45 46 47 48 49 50
000
ASUS46 KPQR 301510
RWROR

OREGON REGIONAL WEATHER ROUNDUP
NATIONAL WEATHER SERVICE PORTLAND OR
800 AM PDT FRI SEP 30 2016

NOTE: "FAIR" INDICATES FEW OR NO CLOUDS BELOW 12,000 FEET WITH
NO SIGNIFICANT WEATHER AND/OR OBSTRUCTIONS TO VISIBILITY.

ORZ001>013-301600-
NORTHWEST OREGON


CITY           SKY/WX    TMP DP  RH WIND       PRES   REMARKS
ASTORIA        CLOUDY    48  46  93 SE3       30.03F
NEWPORT        CLEAR     41  41 100 CALM      30.07F FOG
PORTLAND       CLOUDY    45  44  97 NW5       30.05F FOG
VANCOUVER WA   CLOUDY    47  46  97 N3        30.05F FOG
SCAPPOOSE      CLOUDY    42  42 100 CALM      30.05S FOG
HILLSBORO      PTCLDY    40  38  93 CALM      30.04F
AURORA         CLEAR     43  42  97 CALM      30.05S
MCMINNVILLE    CLEAR     39  38  96 CALM      30.05F
SALEM          CLEAR     43  40  89 CALM      30.04S
CORVALLIS        N/A     39  36  87 CALM      30.05S
EUGENE         PTCLDY    44  40  85 S5        30.05S
$$

ORZ021-028-301600-
SOUTHWEST OREGON


CITY           SKY/WX    TMP DP  RH WIND       PRES   REMARKS
NORTH BEND     CLOUDY    54  48  82 S5        30.09S
BROOKINGS      CLOUDY    50  49  96 SE5       30.11S
ROSEBURG       CLEAR     48  43  82 CALM      30.06R
SEXTON SUMMIT  PTCLDY    44  40  85 S6        30.04S
MEDFORD        CLEAR     49  42  77 CALM      30.04R
$$

ORZ014>016-041-301600-
COLUMBIA GORGE


CITY           SKY/WX    TMP DP  RH WIND       PRES   REMARKS
TROUTDALE      CLOUDY    47  44  90 CALM      30.05S
THE DALLES     PTCLDY    53  37  54 SW6       29.98S
$$

ORZ029>031-041-044-049-050-061>064-502-503-505>511-301600-
EASTERN OREGON


CITY           SKY/WX    TMP DP  RH WIND       PRES   REMARKS
REDMOND        MOCLDY    46  38  73 S5        30.01S
BEND           PTCLDY    46  37  71 CALM      30.01F
PRINEVILLE     CLEAR     41  37  87 CALM      30.02S
KLAMATH FALLS  CLEAR     52  38  58 VRB5      30.05S
LAKEVIEW       MOSUNNY   45  25  45 CALM      30.12S
HERMISTON      MOSUNNY   55  43  63 CALM      29.96F
PENDLETON      MOSUNNY   51  42  71 E3        29.97S
JOHN DAY       SUNNY     53  42  65 E10       30.05S
MEACHAM        SUNNY     40  35  83 CALM      30.02F
LA GRANDE      SUNNY     48  37  66 N3        30.01S
BAKER CITY     SUNNY     43  39  86 CALM      30.05R
BURNS          SUNNY     44  26  49 CALM      30.10S
ROME             N/A     61  26  26 S7        30.09S
ONTARIO        SUNNY     60  45  57 NE3       30.04R
$$



USA.gov is the U.S. government's official web portal to all federal, state and local government web resources and services.